Vicksburg, LA

1:16 PM CDT on August 21, 2017 (GMT -0500)
Vicksburg Tallulah Regional

Weather History for KTVR - April, 2013

Change the Weather History Date:

Monday, April 8, 2013

  Actual Average Record
Temperature  
Mean Temperature 72 °F 63 °F  
Max Temperature 84 °F 74 °F 88 °F (1972)
Min Temperature 60 °F 51 °F 35 °F (1971)
Degree Days  
Heating Degree Days 0 5  
Month to date heating degree days 51 41  
Since 1 July heating degree days 2207 2282  
Cooling Degree Days 7 2  
Month to date cooling degree days 8 15  
Year to date cooling degree days 33 47  
Growing Degree Days 21 (Base 50)    
Moisture  
Dew Point 59 °F    
Average Humidity 70    
Maximum Humidity 93    
Minimum Humidity 46    
Precipitation  
Precipitation 0.00 in 0.17 in 2.44 in (2002)
Month to date precipitation 0.30 1.34  
Year to date precipitation 26.09 16.71  
Sea Level Pressure  
Sea Level Pressure 29.96 in    
Wind  
Wind Speed 11 mph (SSE)    
Max Wind Speed 22 mph    
Max Gust Speed 30 mph    
Visibility 10 miles    
Events      
T = Trace of Precipitation, MM = Missing Value Source: NWS Daily Summary

Daily Weather History Graph

Daily Weather History Graph

Search for Another Location

Airport or City:

Trip Planner

Search our weather history database for the weather conditions in past years. The results will help you decide how hot, cold, wet, or windy it might be!

Date:

Astronomy

Apr. 08, 2013 Rise Set
Actual Time 6:43 AM CDT 7:29 PM CDT
Civil Twilight 6:18 AM CDT 7:54 PM CDT
Nautical Twilight 5:48 AM CDT 8:23 PM CDT
Astronomical Twilight 5:18 AM CDT 8:53 PM CDT
Moon 5:28 AM CDT (4/8) 6:06 PM CDT (4/8)
Length of Visible Light 13h 35m
Length of Day
12h 45m
Waning Crescent, 3% of the Moon is Illuminated
Apr 8
Waning Crescent
Apr 10
New
Apr 18
First Quarter
Apr 25
Full
May 2
Last Quarter

Hourly Weather History & Observations

Time (CDT) Temp. Heat Index Dew Point Humidity Pressure Visibility Wind Dir Wind Speed Gust Speed Precip Events Conditions
12:53 AM 64.0 °F - 57.9 °F 80% 29.99 in 10.0 mi South 10.4 mph - N/A   Clear
1:53 AM 63.0 °F - 57.9 °F 84% 29.98 in 10.0 mi South 8.1 mph - N/A   Clear
2:53 AM 62.1 °F - 57.9 °F 86% 29.96 in 10.0 mi SSE 6.9 mph - N/A   Partly Cloudy
3:53 AM 60.1 °F - 57.9 °F 93% 29.96 in 10.0 mi South 6.9 mph - N/A   Clear
4:53 AM 61.0 °F - 57.9 °F 90% 29.95 in 10.0 mi SSE 6.9 mph - N/A   Clear
5:53 AM 60.1 °F - 57.9 °F 93% 29.96 in 10.0 mi SSE 8.1 mph - N/A   Clear
6:53 AM 60.1 °F - 57.9 °F 93% 29.97 in 8.0 mi SSE 8.1 mph - N/A   Clear
7:53 AM 63.0 °F - 60.1 °F 90% 30.00 in 10.0 mi SSE 9.2 mph - N/A   Overcast
8:53 AM 66.0 °F - 61.0 °F 84% 30.00 in 10.0 mi SSE 10.4 mph - N/A   Scattered Clouds
9:53 AM 70.0 °F - 61.0 °F 73% 30.01 in 10.0 mi South 10.4 mph - N/A   Mostly Cloudy
10:53 AM 73.9 °F - 59.0 °F 59% 30.02 in 10.0 mi South 15.0 mph 21.9 mph N/A   Mostly Cloudy
11:53 AM 75.9 °F - 57.9 °F 54% 30.01 in 10.0 mi South 9.2 mph - N/A   Scattered Clouds
12:53 PM 78.1 °F - 60.1 °F 54% 29.99 in 10.0 mi South 16.1 mph 23.0 mph N/A   Mostly Cloudy
1:53 PM 81.0 °F 81.6 °F 60.1 °F 49% 29.95 in 10.0 mi South 17.3 mph 24.2 mph N/A   Clear
2:53 PM 82.0 °F 82.1 °F 59.0 °F 45% 29.93 in 10.0 mi South 15.0 mph 23.0 mph N/A   Clear
3:53 PM 82.9 °F 83.2 °F 60.1 °F 46% 29.91 in 10.0 mi South 15.0 mph 24.2 mph N/A   Clear
4:53 PM 81.0 °F 81.3 °F 59.0 °F 47% 29.87 in 10.0 mi SSE 18.4 mph 25.3 mph N/A   Clear
5:53 PM 80.1 °F 80.7 °F 59.0 °F 48% 29.90 in 10.0 mi SSE 15.0 mph 25.3 mph N/A   Clear
6:53 PM 78.1 °F - 59.0 °F 52% 29.93 in 10.0 mi South 16.1 mph 21.9 mph N/A   Scattered Clouds
7:53 PM 75.0 °F - 59.0 °F 57% 29.90 in 10.0 mi SSE 13.8 mph - N/A   Clear
8:53 PM 73.0 °F - 59.0 °F 61% 29.93 in 10.0 mi SSE 6.9 mph - N/A   Clear
9:53 PM 73.0 °F - 61.0 °F 66% 29.94 in 10.0 mi South 12.7 mph - N/A   Clear
10:53 PM 71.1 °F - 62.1 °F 73% 29.95 in 10.0 mi South 8.1 mph - N/A   Partly Cloudy
11:53 PM 71.1 °F - 63.0 °F 75% 29.96 in 10.0 mi South 9.2 mph - N/A   Clear